2023/05/11 00:00:00,16.8, 9.8
2023/05/11 00:10:00,16.7, 9.6
2023/05/11 00:20:00,16.7, 9.6
2023/05/11 00:30:00,16.7, 9.6
2023/05/11 00:40:00,16.8, 9.5
2023/05/11 00:50:00,16.6, 9.2
2023/05/11 01:00:00,16.8, 9.2
2023/05/11 01:10:00,16.9, 9.2
2023/05/11 01:20:00,16.8, 8.9
2023/05/11 01:30:00,16.5, 8.9
2023/05/11 01:40:00,16.7, 8.9
2023/05/11 01:50:00,16.5, 8.9
2023/05/11 02:00:00,15.7, 8.7
2023/05/11 02:10:00,16.0, 8.5
2023/05/11 02:20:00,16.3, 8.4
2023/05/11 02:30:00,16.0, 8.0
2023/05/11 02:40:00,16.3, 8.1
2023/05/11 02:50:00,16.1, 8.1
2023/05/11 03:00:00,16.2, 7.8
2023/05/11 03:10:00,16.1, 7.7
2023/05/11 03:20:00,16.0, 7.4
2023/05/11 03:30:00,14.5, 7.4
2023/05/11 03:40:00,15.4, 7.8
2023/05/11 03:50:00,15.3, 7.5
2023/05/11 04:00:00,15.4, 7.5
2023/05/11 04:10:00,15.7, 7.2
2023/05/11 04:20:00,15.7, 7.3
2023/05/11 04:30:00,15.7, 6.9
2023/05/11 04:40:00,15.4, 6.8
2023/05/11 04:50:00,15.8, 7.1
2023/05/11 05:00:00,14.3, 6.8
2023/05/11 05:10:00,13.2, 6.8
2023/05/11 05:20:00, 9.6, 7.0
2023/05/11 05:30:00,15.4, 6.6
2023/05/11 05:40:00,15.4, 6.7
2023/05/11 05:50:00,15.0, 7.0
2023/05/11 06:00:00,15.2, 6.9
2023/05/11 06:10:00,15.0, 6.9
2023/05/11 06:20:00,15.4, 6.8
2023/05/11 06:30:00,15.3, 6.9
2023/05/11 06:40:00,15.3, 7.5
2023/05/11 06:50:00,15.4, 8.2
2023/05/11 07:00:00,15.2, 9.6
2023/05/11 07:10:00,14.6, 9.2
2023/05/11 07:20:00,14.6,10.4
2023/05/11 07:30:00,15.0,10.4
2023/05/11 07:40:00,15.1,11.7
2023/05/11 07:50:00,14.7,11.5
2023/05/11 08:00:00,14.2,12.2
2023/05/11 08:10:00,14.6,12.9
2023/05/11 08:20:00,13.4,13.3
2023/05/11 08:30:00,---,14.8
2023/05/11 08:40:00, 0.0,14.5
2023/05/11 08:50:00, 0.0,15.3
2023/05/11 09:00:00, 0.0,16.7
2023/05/11 09:10:00, 0.0,17.3
2023/05/11 09:20:00, 0.0,19.0
2023/05/11 09:30:00, 3.6,20.3
2023/05/11 09:40:00, 2.1,20.4
2023/05/11 09:50:00, 1.6,21.2
2023/05/11 10:00:00, 1.2,21.8
2023/05/11 10:10:00, 1.2,21.9
2023/05/11 10:20:00, 1.2,22.6
2023/05/11 10:30:00, 1.2,22.7
2023/05/11 10:40:00, 1.3,23.1
2023/05/11 10:50:00, 1.5,23.3
2023/05/11 11:00:00, 1.7,23.5
2023/05/11 11:10:00, 1.8,23.9
2023/05/11 11:20:00, 1.6,24.0
2023/05/11 11:30:00, 1.6,24.1
2023/05/11 11:40:00, 2.0,24.0
2023/05/11 11:50:00, 2.3,24.4
2023/05/11 12:00:00, 2.5,24.8
2023/05/11 12:10:00, 2.4,24.6
2023/05/11 12:20:00, 1.8,25.4
2023/05/11 12:30:00, 1.3,24.5
2023/05/11 12:40:00, 1.2,23.9
2023/05/11 12:50:00, 1.3,25.2
2023/05/11 13:00:00, 1.4,25.2
2023/05/11 13:10:00, 2.3,24.8
2023/05/11 13:20:00, 2.4,24.8
2023/05/11 13:30:00, 2.4,25.2
2023/05/11 13:40:00, 2.4,24.7
2023/05/11 13:50:00, 2.6,24.9
2023/05/11 14:00:00, 3.7,24.9
2023/05/11 14:10:00, 3.9,24.2
2023/05/11 14:20:00, 4.4,24.1
2023/05/11 14:30:00,---,24.4
2023/05/11 14:40:00, 0.0,23.7
2023/05/11 14:50:00, 6.0,23.6
2023/05/11 15:00:00, 7.0,24.0
2023/05/11 15:10:00, 4.9,24.1
2023/05/11 15:20:00, 6.7,23.2
2023/05/11 15:30:00, 9.0,23.9
2023/05/11 15:40:00, 7.9,23.6
2023/05/11 15:50:00, 6.2,23.4
2023/05/11 16:00:00, 7.6,22.6
2023/05/11 16:10:00, 7.0,22.9
2023/05/11 16:20:00, 6.2,22.3
2023/05/11 16:30:00, 7.4,22.7
2023/05/11 16:40:00, 9.3,22.4
2023/05/11 16:50:00,10.3,22.0
2023/05/11 17:00:00,10.5,21.7
2023/05/11 17:10:00,11.0,21.1
2023/05/11 17:20:00,11.9,21.2
2023/05/11 17:30:00,12.5,20.4
2023/05/11 17:40:00,12.4,19.2
2023/05/11 17:50:00,12.8,18.2
2023/05/11 18:00:00,13.7,17.6
2023/05/11 18:10:00,14.4,17.1
2023/05/11 18:20:00,14.9,16.7
2023/05/11 18:30:00,15.0,16.3
2023/05/11 18:40:00,15.2,15.6
2023/05/11 18:50:00,15.4,15.3
2023/05/11 19:00:00,15.6,15.1
2023/05/11 19:10:00,15.8,14.4
2023/05/11 19:20:00,15.7,13.9
2023/05/11 19:30:00,15.8,13.9
2023/05/11 19:40:00,15.8,13.9
2023/05/11 19:50:00,16.0,13.2
2023/05/11 20:00:00,16.1,13.2
2023/05/11 20:10:00,16.2,12.8
2023/05/11 20:20:00,16.2,12.4
2023/05/11 20:30:00,16.3,12.1
2023/05/11 20:40:00,16.3,12.3
2023/05/11 20:50:00,16.1,12.0
2023/05/11 21:00:00,16.4,11.4
2023/05/11 21:10:00,16.3,11.9
2023/05/11 21:20:00,16.4,11.8
2023/05/11 21:30:00,16.1,11.7
2023/05/11 21:40:00,15.8,11.4
2023/05/11 21:50:00,15.3,11.1
2023/05/11 22:00:00,15.9,10.9
2023/05/11 22:10:00,15.1,10.6
2023/05/11 22:20:00,15.2,10.2
2023/05/11 22:30:00,15.4,10.1
2023/05/11 22:40:00,15.5, 9.9
2023/05/11 22:50:00,14.9, 9.6
2023/05/11 23:00:00,15.3, 9.5
2023/05/11 23:10:00,15.3, 9.0
2023/05/11 23:20:00,15.3, 9.1
2023/05/11 23:30:00,15.4, 9.0
2023/05/11 23:40:00,15.0, 8.9
2023/05/11 23:50:00,14.0, 8.8
